DW2270 Weather Reports


Display with metric or nautical units.
time (UTC)temp
F
wind
direction
speed
MPH
gust
MPH
rain 1hr
in
rain 24hr
in
rain mn
in
humidity
%
barometer
mb
20260903192656 78 52 0.0 0.0 0.00 1.38 0.27 1 1013.5
20260903191707 78 52 0.0 0.0 0.06 1.38 0.27 1 1013.6
20260903190653 79 52 0.0 0.0 0.10 1.37 0.26 1 1013.5
20260903185702 79 60 0.0 0.0 0.10 1.35 0.24 1 1013.8
20260903184725 79 60 0.0 0.0 0.18 1.32 0.21 1 1014.2
20260903182607 79 60 0.0 0.0 0.00 1.31 0.20 1 1014.2
20260903181604 80 65 0.0 0.0 0.00 1.31 0.20 1 1014.0
20260903175447 81 157 0.0 2.0 0.00 1.31 0.20 1 1014.5
20260903172221 83 79 0.0 0.0 0.00 1.31 0.20 1 1014.3
20260903171246 83 79 0.0 0.0 0.00 1.31 0.20 1 1013.9
20260903170227 83 79 0.0 0.0 0.00 1.31 0.20 1 1014.0
20260903165209 83 79 0.0 0.0 0.00 1.31 0.20 1 1014.3
20260903163056 82 79 0.0 0.0 0.00 1.31 0.20 1 1014.0
20260903162110 82 79 0.0 0.0 0.00 1.31 0.20 1 1014.0
20260903161043 83 98 0.0 0.0 0.00 1.31 0.20 1 1013.9
20260903160017 83 96 0.0 0.0 0.00 1.31 0.20 1 1013.9
20260903153901 83 96 0.0 0.0 0.00 1.31 0.20 1 1013.8
20260903152829 83 96 0.0 0.0 0.00 1.31 0.20 1 1013.9
20260903151840 83 97 0.0 2.0 0.00 1.31 0.20 1 1014.1
20260903150822 82 90 0.0 1.0 0.00 1.31 0.20 1 1014.1
20260903145814 82 90 0.0 0.0 0.00 1.31 0.20 1 1014.2
20260903143652 82 90 0.0 0.0 0.00 1.31 0.20 1 1014.5
20260903142630 81 90 0.0 0.0 0.00 1.31 0.20 1 1014.4
20260903141636 81 90 0.0 1.0 0.00 1.31 0.20 1 1014.3
20260903140602 81 90 0.0 0.0 0.00 1.31 0.20 1 1014.3
20260903135602 81 90 0.0 0.0 0.00 1.31 0.20 1 1014.1
20260903134625 81 90 0.0 0.0 0.00 1.31 0.20 1 1014.1
20260903133622 81 90 0.0 0.0 0.00 1.31 0.20 1 1014.0
20260903132629 80 90 0.0 0.0 0.00 1.31 0.20 1 1014.0
20260903131608 80 90 0.0 0.0 0.00 1.31 0.20 1 1013.9
20260903130556 80 90 0.0 0.0 0.00 1.31 0.20 1 1014.0
20260903125606 80 90 0.0 0.0 0.00 1.31 0.20 1 1013.9
20260903124550 80 90 0.0 0.0 0.00 1.31 0.20 1 1013.9
20260903123515 79 90 0.0 0.0 0.00 1.31 0.20 1 1013.6
20260903121338 79 90 0.0 0.0 0.00 1.31 0.20 1 1013.0
20260903120317 79 90 0.0 0.0 0.00 1.31 0.20 1 1013.0
20260903115338 79 90 0.0 0.0 0.00 1.31 0.20 1 1013.1
20260903114340 79 90 0.0 0.0 0.00 1.31 0.20 1 1013.0
20260903112244 79 90 0.0 0.0 0.00 1.31 0.20 1 1012.8
20260903111301 79 90 0.0 0.0 0.00 1.31 0.20 1 1012.9
20260903110300 79 90 0.0 0.0 0.00 1.31 0.20 1 1012.9
20260903105246 79 90 0.0 0.0 0.00 1.31 0.20 1 1012.9
20260903104248 79 90 0.0 0.0 0.00 1.31 0.20 1 1012.7
20260903103249 79 90 0.0 0.0 0.00 1.31 0.20 1 1012.6
20260903102301 79 90 0.0 0.0 0.00 1.31 0.20 1 1012.6
20260903101305 79 90 0.0 0.0 0.00 1.31 0.20 1 1012.6
20260903100249 79 90 0.0 0.0 0.00 1.31 0.20 1 1012.6
20260903095225 79 90 0.0 0.0 0.00 1.31 0.20 1 1012.6
20260903094245 79 90 0.0 0.0 0.00 1.31 0.20 1 1012.5
20260903093232 79 90 0.0 0.0 0.00 1.31 0.20 1 1012.5
20260903092248 79 90 0.0 0.0 0.00 1.31 0.20 1 1012.5
20260903091230 79 90 0.0 0.0 0.00 1.31 0.20 1 1012.5
20260903090228 79 90 0.0 0.0 0.00 1.31 0.20 1 1012.5
20260903085153 79 90 0.0 0.0 0.00 1.32 0.20 1 1012.5
20260903084140 79 90 0.0 0.0 0.00 1.32 0.20 1 1012.5
20260903083125 79 90 0.0 0.0 0.00 1.32 0.20 1 1012.4
20260903082132 79 90 0.0 0.0 0.00 1.32 0.20 1 1012.3
20260903075955 79 90 0.0 0.0 0.00 1.32 0.20 1 1012.3
20260903075013 79 90 0.0 0.0 0.00 1.32 0.20 1 1012.3
20260903073950 79 90 0.0 0.0 0.00 1.32 0.20 1 1012.2
20260903071855 79 90 0.0 0.0 0.00 1.32 0.20 1 1012.2
20260903070844 79 90 0.0 0.0 0.00 1.32 0.20 1 1012.3
20260903065816 79 90 0.0 0.0 0.00 1.32 0.20 1 1012.5
20260903064807 79 90 0.0 0.0 0.00 1.32 0.20 1 1012.4
20260903063828 79 90 0.0 0.0 0.00 1.32 0.20 1 1012.5
20260903062816 79 90 0.0 0.0 0.00 1.32 0.20 1 1012.6
20260903061749 79 90 0.0 0.0 0.00 1.32 0.20 1 1012.7
20260903060734 79 90 0.0 0.0 0.00 1.32 0.20 1 1012.7
20260903055721 79 0 0.0 7.0 0.06 1.32 0.20 1 1012.8
20260903054744 79 152 0.0 0.0 0.06 1.31 0.19 1 1012.8
20260903053804 78 152 0.0 0.0 0.21 1.30 0.18 1 1013.1
20260903052802 78 152 0.0 0.0 0.04 1.28 0.16 1 1013.3
20260903051744 78 152 0.0 0.0 0.13 1.28 0.16 1 1013.5
20260903050730 78 99 0.0 6.0 0.66 1.12 0.13 1 1013.7
20260903045752 78 296 0.0 1.0 1.40 1.07 1.10 1 1013.8
20260903044722 78 292 0.0 0.0 0.24 0.94 0.96 1 1014.0
20260903043737 78 292 0.0 1.0 0.00 0.90 0.90 1 1014.1
20260903041645 78 328 0.0 0.0 0.00 0.89 0.89 1 1014.2
20260903035545 78 328 0.0 0.0 0.00 0.89 0.89 1 1013.9
20260903034554 78 328 0.0 0.0 0.00 0.89 0.89 1 1013.6
20260903033540 78 328 0.0 0.0 0.00 0.89 0.89 1 1013.6
20260903032548 77 328 0.0 3.0 0.00 0.89 0.89 1 1013.5
20260903031532 77 117 0.0 0.0 0.00 0.89 0.89 1 1013.5
20260903030514 77 117 0.0 0.0 0.00 0.89 0.89 1 1013.4
20260903025448 77 117 0.0 0.0 0.00 0.89 0.89 1 1013.3
20260903024445 77 117 0.0 0.0 0.00 0.89 0.89 1 1013.0
20260903023448 77 117 0.0 0.0 0.00 0.89 0.89 1 1012.9
20260903021242 77 117 0.0 0.0 0.00 0.89 0.89 1 1012.5
20260903020248 77 117 0.0 0.0 0.00 0.89 0.89 1 1012.2
20260903015246 78 134 0.0 0.0 0.00 0.89 0.89 1 1012.4
20260903014231 78 134 0.0 6.0 0.04 0.89 0.89 1 1012.3
20260903013229 78 128 0.0 6.0 0.10 0.89 0.89 1 1012.0
20260903012219 78 117 0.0 3.0 0.13 0.86 0.87 1 1011.9
20260903011207 78 177 0.0 3.0 1.65 0.74 0.80 1 1012.4
20260903010224 78 231 0.0 3.0 1.91 0.46 0.51 1 1013.1
20260903005236 78 95 0.0 2.0 1.77 0.23 0.25 1 1013.0
20260903003109 79 51 0.0 3.0 0.00 0.19 0.20 1 1011.4
20260903002132 79 5 0.0 3.0 0.00 0.19 0.20 1 1011.6
20260903001111 80 148 0.0 2.0 0.00 0.19 0.20 1 1011.4
20260903000101 81 329 0.0 4.0 0.00 0.19 0.20 1 1011.0
20260902235049 81 5 0.0 4.0 0.00 0.19 0.20 1 1011.1
20260902234020 81 82 0.0 3.0 0.05 0.19 0.20 1 1010.9
20260902233002 82 342 0.0 5.0 0.06 0.19 0.20 1 1010.6
20260902231932 83 69 1.0 5.0 0.27 0.18 0.18 1 1010.4
20260902230909 86 0 0.0 5.0 0.15 0.07 0.06 1 1011.3
20260902225910 88 317 0.0 5.0 0.00 0.02 0.01 23 1011.2
20260902224844 89 103 0.0 2.0 0.00 0.04 0.01 33 1010.6
20260902223818 91 348 0.0 5.0 0.00 0.04 0.01 45 1010.8
20260902222830 91 106 0.0 5.0 0.00 0.05 0.01 46 1010.5
20260902221828 91 82 0.0 2.0 0.00 0.08 0.01 46 1010.3
20260902220800 91 55 0.0 0.0 0.00 0.13 0.01 43 1010.3
20260902215756 91 55 0.0 3.0 0.00 0.20 0.01 46 1010.3
20260902214721 91 55 0.0 1.0 0.00 0.20 0.01 45 1010.4
20260902210350 94 336 0.0 3.0 0.00 0.20 0.01 55 1010.9
20260902205328 94 80 0.0 3.0 0.00 0.20 0.01 55 1010.8
20260902204331 94 69 0.0 3.0 0.00 0.20 0.01 55 1010.8
20260902202204 93 117 1.0 7.0 0.00 0.20 0.01 55 1011.0
20260902201224 93 327 1.0 6.0 0.00 0.20 0.01 54 1011.1
20260902200228 93 257 1.0 8.0 0.00 0.20 0.01 54 1011.1
20260902195232 93 204 1.0 10.0 0.00 0.20 0.01 53 1011.2
20260902194216 93 111 1.0 11.0 0.00 0.20 0.01 51 1011.3
20260902193208 92 144 1.0 11.0 0.00 0.20 0.01 52 1011.5